Torna al catalogo

CZ-6A DEB

AttivoPO
NORAD 61829·DEBRIS·🇨🇳 China

Lanciato Aug 6, 2024 da Taiyuan Satellite Launch Center

Loading…

Prossimi Passaggi (prossime 24 ore)

TLE

AggiornatoSource: Space-Track

Epoca: Sep 14, 2026, 00:56 UTC

1 61829U 24140ACV 26257.03946119  .00043911  00000-0  28143-2 0  9990
2 61829  89.2059 278.4253 0053782 140.5371 219.9805 15.07132221105642

Traccia CZ-6A DEB in tempo reale con AllMySat

Download on the App Store